MRK6402 SUMU-SBGR

Flight info

Callsign MRK6402
Flight time N/A
Altitude 37000
Route MOLBI UM540 AKPOD UZ131 NIGBI UZ121 BUXUK
Aircraft B738/M-SDE2E3FGHIRWXY/LB1

Departure

Time 2026-04-29 17:24
Airport Carrasco General Cesáreo L. Berisso International Airport (SUMU)

Arrival

Time N/A
Airport São Paulo/Guarulhos–Governor André Franco Montoro International Airport (SBGR)
Time Latitude Longitude Altitude Speed Heading
2026-04-29 16:42 -34.83868 -56.02540 81 ft 0 kts
2026-04-29 17:15 -34.83886 -56.02541 81 ft 4 kts
2026-04-29 17:16 -34.83913 -56.02541 81 ft 4 kts
2026-04-29 17:16 -34.83935 -56.02540 81 ft 4 kts 337°
2026-04-29 17:16 -34.83950 -56.02522 81 ft 4 kts 270°
2026-04-29 17:16 -34.83947 -56.02490 81 ft 4 kts 266°
2026-04-29 17:17 -34.83946 -56.02483 81 ft 2 kts 270°
2026-04-29 17:19 -34.83946 -56.02484 81 ft 1 kts 270°
2026-04-29 17:19 -34.83946 -56.02540 81 ft 12 kts 270°
2026-04-29 17:19 -34.83957 -56.02678 81 ft 18 kts 249°
2026-04-29 17:20 -34.84010 -56.02813 81 ft 18 kts 264°
2026-04-29 17:20 -34.84011 -56.02937 81 ft 6 kts 271°
2026-04-29 17:20 -34.84010 -56.02975 81 ft 6 kts 271°
2026-04-29 17:20 -34.84009 -56.03061 81 ft 3 kts 275°
2026-04-29 17:21 -34.83992 -56.03075 81 ft 3 kts 350°
2026-04-29 17:21 -34.83984 -56.03075 81 ft 0 kts 359°
2026-04-29 17:23 -34.83983 -56.03075 81 ft 1 kts 359°
2026-04-29 17:23 -34.83782 -56.03079 81 ft 66 kts 359°
2026-04-29 17:23 -34.83072 -56.03088 81 ft 136 kts 359°
2026-04-29 17:24 -34.81956 -56.03089 285 ft 173 kts 360°
2026-04-29 17:24 -34.80757 -56.03070 1055 ft 180 kts
2026-04-29 17:24 -34.79441 -56.02963 1564 ft 205 kts 15°
2026-04-29 17:24 -34.78210 -56.01918 1833 ft 232 kts 47°
2026-04-29 17:25 -34.77096 -56.00432 2382 ft 243 kts 47°
2026-04-29 17:25 -34.75911 -55.98894 2954 ft 259 kts 46°
2026-04-29 17:25 -34.74634 -55.97280 3711 ft 268 kts 46°
2026-04-29 17:25 -34.73315 -55.95649 4601 ft 273 kts 45°
2026-04-29 17:26 -34.71966 -55.94008 5489 ft 276 kts 45°
2026-04-29 17:26 -34.70589 -55.92353 6355 ft 280 kts 44°
2026-04-29 17:26 -34.69187 -55.90683 7179 ft 285 kts 44°
2026-04-29 17:26 -34.67758 -55.88992 7984 ft 289 kts 44°
2026-04-29 17:27 -34.66325 -55.87303 8749 ft 293 kts 44°
2026-04-29 17:27 -34.64829 -55.85546 9513 ft 297 kts 44°
2026-04-29 17:27 -34.63355 -55.83818 10232 ft 301 kts 44°
2026-04-29 17:27 -34.61798 -55.81996 10512 ft 322 kts 44°
2026-04-29 17:28 -34.60130 -55.80048 10683 ft 343 kts 44°
2026-04-29 17:28 -34.58359 -55.77981 10838 ft 363 kts 44°
2026-04-29 17:28 -34.56507 -55.75822 11160 ft 374 kts 44°
2026-04-29 17:28 -34.54615 -55.73617 11675 ft 378 kts 44°
2026-04-29 17:29 -34.52711 -55.71400 12245 ft 381 kts 44°
2026-04-29 17:29 -34.50785 -55.69160 12703 ft 386 kts 44°
2026-04-29 17:29 -34.48844 -55.66903 13247 ft 387 kts 44°
2026-04-29 17:29 -34.47526 -55.65372 13568 ft 389 kts 44°
2026-04-29 17:30 -34.44923 -55.62349 14147 ft 394 kts 44°
2026-04-29 17:30 -34.42935 -55.60042 14592 ft 397 kts 44°
2026-04-29 17:30 -34.40938 -55.57726 15017 ft 399 kts 44°
2026-04-29 17:30 -34.38922 -55.55389 15414 ft 402 kts 44°
2026-04-29 17:31 -34.36895 -55.53042 15790 ft 405 kts 44°
2026-04-29 17:31 -34.34853 -55.50680 16151 ft 407 kts 44°
2026-04-29 17:31 -34.32765 -55.48333 16454 ft 411 kts 42°
2026-04-29 17:31 -34.30622 -55.46038 16807 ft 413 kts 41°
2026-04-29 17:32 -34.28450 -55.43757 17156 ft 414 kts 41°
2026-04-29 17:32 -34.26264 -55.41469 17458 ft 417 kts 41°
2026-04-29 17:32 -34.24069 -55.39168 17747 ft 419 kts 41°
2026-04-29 17:32 -34.21861 -55.36847 17960 ft 423 kts 41°
2026-04-29 17:33 -34.19637 -55.34501 18237 ft 424 kts 41°
2026-04-29 17:33 -34.17416 -55.32155 18596 ft 423 kts 41°
2026-04-29 17:33 -34.15208 -55.29820 18943 ft 423 kts 41°
2026-04-29 17:33 -34.12976 -55.27459 18998 ft 430 kts 41°
2026-04-29 17:34 -34.10714 -55.25069 19121 ft 434 kts 41°
2026-04-29 17:34 -34.08450 -55.22677 19501 ft 431 kts 41°
2026-04-29 17:34 -34.06183 -55.20283 19644 ft 435 kts 41°
2026-04-29 17:34 -34.03896 -55.17872 19775 ft 438 kts 41°
2026-04-29 17:35 -34.00853 -55.14664 20014 ft 440 kts 41°
2026-04-29 17:35 -33.96985 -55.10592 20251 ft 443 kts 41°
2026-04-29 17:35 -33.95445 -55.08973 20348 ft 444 kts 41°
2026-04-29 17:36 -33.93109 -55.06518 20429 ft 447 kts 41°
2026-04-29 17:36 -33.90766 -55.04057 20675 ft 445 kts 41°
2026-04-29 17:36 -33.88433 -55.01609 20886 ft 445 kts 41°
2026-04-29 17:36 -33.86097 -54.99160 20995 ft 447 kts 41°
2026-04-29 17:37 -33.83745 -54.96695 21098 ft 449 kts 41°
2026-04-29 17:37 -33.81388 -54.94227 21247 ft 449 kts 41°
2026-04-29 17:37 -33.79033 -54.91763 21375 ft 450 kts 41°
2026-04-29 17:37 -33.76661 -54.89283 21448 ft 452 kts 41°
2026-04-29 17:38 -33.74289 -54.86806 21590 ft 452 kts 41°
2026-04-29 17:38 -33.71913 -54.84326 21724 ft 452 kts 41°
2026-04-29 17:38 -33.69536 -54.81846 21826 ft 453 kts 41°
2026-04-29 17:38 -33.67151 -54.79360 21922 ft 454 kts 41°
2026-04-29 17:39 -33.64760 -54.76870 21985 ft 456 kts 41°
2026-04-29 17:39 -33.62361 -54.74374 22107 ft 456 kts 41°
2026-04-29 17:39 -33.59966 -54.71884 22226 ft 456 kts 41°
2026-04-29 17:39 -33.57568 -54.69392 22295 ft 457 kts 41°
2026-04-29 17:40 -33.55158 -54.66890 22358 ft 458 kts 41°
2026-04-29 17:40 -33.52750 -54.64391 22450 ft 459 kts 41°
2026-04-29 17:40 -33.50333 -54.61886 22515 ft 460 kts 40°
2026-04-29 17:40 -33.47924 -54.59390 22892 ft 457 kts 41°
2026-04-29 17:41 -33.45517 -54.56900 22934 ft 458 kts 41°
2026-04-29 17:41 -33.43100 -54.54399 22950 ft 460 kts 41°
2026-04-29 17:41 -33.40669 -54.51886 22967 ft 462 kts 41°
2026-04-29 17:41 -33.38301 -54.49441 23000 ft 463 kts 40°
2026-04-29 17:42 -33.35857 -54.46919 23009 ft 465 kts 40°
2026-04-29 17:42 -33.33410 -54.44396 23103 ft 464 kts 40°
2026-04-29 17:42 -33.30969 -54.41880 23214 ft 463 kts 40°
2026-04-29 17:42 -33.28576 -54.39417 23305 ft 464 kts 40°
2026-04-29 17:43 -33.26157 -54.36928 24068 ft 455 kts 40°
2026-04-29 17:43 -33.23780 -54.34484 24952 ft 445 kts 40°
2026-04-29 17:43 -33.21450 -54.32090 25349 ft 442 kts 40°
2026-04-29 17:43 -33.19110 -54.29688 25350 ft 445 kts 40°
2026-04-29 17:44 -33.16752 -54.27270 25373 ft 448 kts 40°
2026-04-29 17:44 -33.14382 -54.24840 25395 ft 451 kts 40°
2026-04-29 17:44 -33.11999 -54.22399 25432 ft 452 kts 40°
2026-04-29 17:44 -33.09635 -54.19980 25446 ft 455 kts 40°
2026-04-29 17:45 -33.07198 -54.17487 25474 ft 456 kts 40°
2026-04-29 17:45 -33.04788 -54.15025 25512 ft 457 kts 40°
2026-04-29 17:45 -33.02368 -54.12553 25529 ft 459 kts 40°
2026-04-29 17:45 -32.99966 -54.10103 25708 ft 460 kts 40°
2026-04-29 17:46 -32.97556 -54.07647 26367 ft 454 kts 40°
2026-04-29 17:46 -32.95163 -54.05208 26820 ft 453 kts 40°
2026-04-29 17:46 -32.92725 -54.02724 27101 ft 457 kts 40°
2026-04-29 17:46 -32.90335 -54.00293 27328 ft 459 kts 40°
2026-04-29 17:47 -32.87906 -53.97823 27390 ft 459 kts 40°
2026-04-29 17:47 -32.85482 -53.95360 27541 ft 459 kts 40°
2026-04-29 17:47 -32.83065 -53.92906 28068 ft 456 kts 40°
2026-04-29 17:47 -32.80642 -53.90449 28250 ft 461 kts 40°
2026-04-29 17:48 -32.78187 -53.87960 28405 ft 466 kts 40°
2026-04-29 17:48 -32.75714 -53.85455 28694 ft 467 kts 40°
2026-04-29 17:48 -32.73246 -53.82956 29122 ft 465 kts 40°
2026-04-29 17:48 -32.70789 -53.80471 29582 ft 463 kts 40°
2026-04-29 17:49 -32.68343 -53.78000 29979 ft 461 kts 40°
2026-04-29 17:49 -32.65899 -53.75531 30310 ft 462 kts 40°
2026-04-29 17:49 -32.63449 -53.73058 30597 ft 463 kts 40°
2026-04-29 17:49 -32.60997 -53.70586 30904 ft 463 kts 40°
2026-04-29 17:50 -32.58537 -53.68107 30992 ft 466 kts 40°
2026-04-29 17:50 -32.53592 -53.63128 30998 ft 465 kts 40°
2026-04-29 17:51 -32.48660 -53.58171 31118 ft 467 kts 40°
2026-04-29 17:51 -32.46111 -53.55791 31433 ft 467 kts 33°
2026-04-29 17:51 -32.43311 -53.53877 31837 ft 463 kts 27°
2026-04-29 17:51 -32.40462 -53.52128 32236 ft 461 kts 27°
2026-04-29 17:52 -32.37605 -53.50398 32521 ft 461 kts 27°
2026-04-29 17:52 -32.35718 -53.49256 32681 ft 461 kts 27°
2026-04-29 17:52 -32.31898 -53.46927 33009 ft 461 kts 27°
2026-04-29 17:53 -32.26184 -53.43405 32986 ft 462 kts 27°
2026-04-29 17:53 -32.20533 -53.39901 32997 ft 456 kts 27°
2026-04-29 17:54 -32.14948 -53.36438 32997 ft 451 kts 27°
2026-04-29 17:54 -32.09417 -53.33015 32998 ft 447 kts 27°
2026-04-29 17:55 -32.03929 -53.29624 33000 ft 444 kts 27°
2026-04-29 17:55 -31.98475 -53.26260 32999 ft 441 kts 27°
2026-04-29 17:56 -31.93027 -53.22903 33013 ft 446 kts 27°
2026-04-29 17:56 -31.87457 -53.19476 33011 ft 456 kts 27°
2026-04-29 17:57 -31.81820 -53.16012 33007 ft 465 kts 27°
2026-04-29 17:57 -31.76038 -53.12465 33010 ft 472 kts 27°
2026-04-29 17:58 -31.70178 -53.08875 33008 ft 478 kts 27°
2026-04-29 17:58 -31.64249 -53.05247 33006 ft 483 kts 27°
2026-04-29 17:59 -31.58253 -53.01584 33003 ft 488 kts 27°
2026-04-29 17:59 -31.52206 -52.97894 33003 ft 492 kts 27°
2026-04-29 18:00 -31.46112 -52.94182 33003 ft 495 kts 27°
2026-04-29 18:00 -31.39977 -52.90450 33002 ft 498 kts 27°
2026-04-29 18:01 -31.33810 -52.86703 33002 ft 501 kts 27°
2026-04-29 18:01 -31.27616 -52.82945 33003 ft 503 kts 27°
2026-04-29 18:02 -31.21390 -52.79167 33001 ft 505 kts 27°
2026-04-29 18:02 -31.15152 -52.75386 32996 ft 503 kts 27°
2026-04-29 18:03 -31.08941 -52.71626 33001 ft 502 kts 27°
2026-04-29 18:03 -31.02839 -52.67938 32990 ft 487 kts 27°
2026-04-29 18:04 -30.96883 -52.64343 32991 ft 477 kts 27°
2026-04-29 18:04 -30.91122 -52.60927 32816 ft 461 kts 24°
2026-04-29 18:04 -30.88198 -52.59413 32487 ft 459 kts 22°
2026-04-29 18:05 -30.85268 -52.57920 31996 ft 460 kts 27°
2026-04-29 18:05 -30.82465 -52.56111 31094 ft 464 kts 30°
2026-04-29 18:05 -30.79671 -52.54176 29953 ft 472 kts 31°
2026-04-29 18:05 -30.76836 -52.52172 28707 ft 481 kts 31°
2026-04-29 18:06 -30.73952 -52.50125 27422 ft 489 kts 31°
2026-04-29 18:06 -30.71032 -52.48047 26123 ft 495 kts 31°
2026-04-29 18:06 -30.68086 -52.45951 24965 ft 497 kts 31°
2026-04-29 18:06 -30.65155 -52.43864 24179 ft 490 kts 31°
2026-04-29 18:07 -30.62274 -52.41816 23525 ft 480 kts 31°
2026-04-29 18:07 -30.59449 -52.39808 22820 ft 472 kts 31°
2026-04-29 18:07 -30.56668 -52.37834 22121 ft 466 kts 31°
2026-04-29 18:07 -30.53957 -52.35914 21903 ft 449 kts 31°
2026-04-29 18:08 -30.51379 -52.34103 21655 ft 443 kts 31°
2026-04-29 18:08 -30.48748 -52.32270 21403 ft 439 kts 31°
2026-04-29 18:08 -30.46096 -52.30547 21128 ft 436 kts 22°
2026-04-29 18:08 -30.43190 -52.29590 20626 ft 435 kts 15°
2026-04-29 18:09 -30.40415 -52.28061 19489 ft 451 kts 38°
2026-04-29 18:09 -30.38296 -52.25410 18524 ft 450 kts 58°
2026-04-29 18:09 -30.37053 -52.22083 17331 ft 454 kts 73°
2026-04-29 18:09 -30.36065 -52.18654 16889 ft 440 kts 69°
2026-04-29 18:10 -30.34920 -52.15453 16656 ft 422 kts 66°
2026-04-29 18:10 -30.33683 -52.12407 16026 ft 416 kts 64°
2026-04-29 18:10 -30.32378 -52.09429 15244 ft 414 kts 63°
2026-04-29 18:10 -30.31039 -52.06493 14529 ft 411 kts 62°
2026-04-29 18:11 -30.29855 -52.03931 13948 ft 406 kts 62°